Time,TemperatureF,DewpointF,PressureIn,WindDirection,WindDirectionDegrees,WindSpeedMPH,WindSpeedGustMPH,Humidity,HourlyPrecipIn,Conditions,Clouds,dailyrainin,SoftwareType,DateUTC
2013-09-26 00:00:00,76.3,43.3,29.14,ESE,123,0.0,5.0,31,0.00,,,-99.99,Weather View 32 v60,2013-09-26 05:00:00,
2013-09-26 00:05:00,76.3,43.3,29.14,East,98,0.0,5.0,31,0.00,,,-99.99,Weather View 32 v60,2013-09-26 05:05:00,
2013-09-26 00:15:00,76.3,42.5,29.14,East,99,0.0,5.0,30,0.00,,,-99.99,Weather View 32 v60,2013-09-26 05:15:00,
2013-09-26 00:20:00,76.3,42.5,29.14,East,99,0.0,5.0,30,0.00,,,-99.99,Weather View 32 v60,2013-09-26 05:20:00,
2013-09-26 00:26:00,76.5,42.6,29.14,East,99,3.0,5.0,30,0.00,,,-99.99,Weather View 32 v60,2013-09-26 05:26:00,
2013-09-26 00:35:00,76.5,42.6,29.14,ESE,114,0.0,5.0,30,0.00,,,-99.99,Weather View 32 v60,2013-09-26 05:35:00,
2013-09-26 00:45:00,76.3,41.6,29.14,ESE,110,0.0,5.0,29,0.00,,,-99.99,Weather View 32 v60,2013-09-26 05:45:00,
2013-09-26 00:50:00,76.1,42.3,29.14,ESE,109,0.0,5.0,30,0.00,,,-99.99,Weather View 32 v60,2013-09-26 05:50:00,
2013-09-26 01:00:00,76.1,42.3,29.14,ESE,114,0.0,5.0,30,0.00,,,-99.99,Weather View 32 v60,2013-09-26 06:00:00,
2013-09-26 01:10:00,75.7,42.9,29.14,ESE,113,0.0,5.0,31,0.00,,,-99.99,Weather View 32 v60,2013-09-26 06:10:00,
2013-09-26 01:15:00,75.7,42.9,29.14,ESE,112,0.0,5.0,31,0.00,,,-99.99,Weather View 32 v60,2013-09-26 06:15:00,
2013-09-26 01:25:00,75.6,42.7,29.14,ESE,113,0.0,5.0,31,0.00,,,-99.99,Weather View 32 v60,2013-09-26 06:25:00,
2013-09-26 01:30:00,75.4,43.4,29.14,ESE,112,0.0,4.0,32,0.00,,,-99.99,Weather View 32 v60,2013-09-26 06:30:00,
2013-09-26 01:35:00,75.2,43.2,29.14,ESE,112,0.0,4.0,32,0.00,,,-99.99,Weather View 32 v60,2013-09-26 06:35:00,
2013-09-26 01:45:00,74.7,42.8,29.14,ESE,113,0.0,4.0,32,0.00,,,-99.99,Weather View 32 v60,2013-09-26 06:45:00,
2013-09-26 01:50:00,74.5,43.4,29.14,ESE,113,0.0,4.0,33,0.00,,,-99.99,Weather View 32 v60,2013-09-26 06:50:00,
2013-09-26 02:00:00,74.1,43.9,29.14,ESE,113,0.0,3.0,34,0.00,,,-99.99,Weather View 32 v60,2013-09-26 07:00:00,
2013-09-26 02:10:00,74.1,43.9,29.14,ESE,113,0.0,3.0,34,0.00,,,-99.99,Weather View 32 v60,2013-09-26 07:10:00,
2013-09-26 02:15:00,73.9,43.7,29.14,ESE,113,0.0,3.0,34,0.00,,,-99.99,Weather View 32 v60,2013-09-26 07:15:00,
2013-09-26 02:25:00,73.9,43.7,29.14,ESE,112,0.0,3.0,34,0.00,,,-99.99,Weather View 32 v60,2013-09-26 07:25:00,
2013-09-26 02:30:00,73.9,44.5,29.14,ESE,112,0.0,3.0,35,0.00,,,-99.99,Weather View 32 v60,2013-09-26 07:30:00,
2013-09-26 02:35:00,73.9,44.5,29.14,ESE,112,0.0,3.0,35,0.00,,,-99.99,Weather View 32 v60,2013-09-26 07:35:00,
2013-09-26 02:40:00,73.8,44.3,29.14,ESE,112,0.0,3.0,35,0.00,,,-99.99,Weather View 32 v60,2013-09-26 07:40:00,
2013-09-26 02:50:00,73.8,45.1,29.14,ESE,113,0.0,3.0,36,0.00,,,-99.99,Weather View 32 v60,2013-09-26 07:50:00,
2013-09-26 02:55:00,73.6,44.9,29.14,ESE,112,0.0,3.0,36,0.00,,,-99.99,Weather View 32 v60,2013-09-26 07:55:00,
2013-09-26 03:05:00,73.6,44.9,29.14,ESE,112,0.0,3.0,36,0.00,,,-99.99,Weather View 32 v60,2013-09-26 08:05:00,
2013-09-26 03:15:00,73.6,44.9,29.14,ESE,112,0.0,3.0,36,0.00,,,-99.99,Weather View 32 v60,2013-09-26 08:15:00,
2013-09-26 03:20:00,73.6,44.9,29.14,ESE,113,0.0,3.0,36,0.00,,,-99.99,Weather View 32 v60,2013-09-26 08:20:00,
2013-09-26 03:28:00,73.4,44.7,29.14,ESE,112,0.0,0.0,36,0.00,,,-99.99,Weather View 32 v60,2013-09-26 08:28:00,
2013-09-26 03:35:00,73.4,45.5,29.14,ESE,113,0.0,0.0,37,0.00,,,-99.99,Weather View 32 v60,2013-09-26 08:35:00,
2013-09-26 03:45:00,73.0,45.9,29.14,ESE,113,0.0,0.0,38,0.00,,,-99.99,Weather View 32 v60,2013-09-26 08:45:00,
2013-09-26 03:50:00,72.9,45.7,29.14,ESE,112,0.0,0.0,38,0.00,,,-99.99,Weather View 32 v60,2013-09-26 08:50:00,
2013-09-26 04:00:00,72.7,45.5,29.14,ESE,112,0.0,0.0,38,0.00,,,-99.99,Weather View 32 v60,2013-09-26 09:00:00,
2013-09-26 04:10:00,72.7,44.8,29.14,ESE,112,0.0,3.0,37,0.00,,,-99.99,Weather View 32 v60,2013-09-26 09:10:00,
2013-09-26 04:15:00,72.7,44.8,29.14,ESE,113,0.0,3.0,37,0.00,,,-99.99,Weather View 32 v60,2013-09-26 09:15:00,
2013-09-26 04:20:00,72.7,44.8,29.14,ESE,112,0.0,3.0,37,0.00,,,-99.99,Weather View 32 v60,2013-09-26 09:20:00,
2013-09-26 04:28:00,72.7,44.8,29.14,ESE,112,0.0,3.0,37,0.00,,,-99.99,Weather View 32 v60,2013-09-26 09:28:00,
2013-09-26 04:35:00,72.7,44.1,29.14,ESE,112,0.0,3.0,36,0.00,,,-99.99,Weather View 32 v60,2013-09-26 09:35:00,
2013-09-26 04:40:00,72.7,44.8,29.14,ESE,112,0.0,3.0,37,0.00,,,-99.99,Weather View 32 v60,2013-09-26 09:40:00,
2013-09-26 04:45:00,72.5,44.7,29.14,ESE,112,0.0,3.0,37,0.00,,,-99.99,Weather View 32 v60,2013-09-26 09:45:00,
2013-09-26 04:55:00,72.3,45.2,29.14,ESE,113,0.0,3.0,38,0.00,,,-99.99,Weather View 32 v60,2013-09-26 09:55:00,
2013-09-26 05:00:00,72.1,45.7,29.14,ESE,112,0.0,3.0,39,0.00,,,-99.99,Weather View 32 v60,2013-09-26 10:00:00,
2013-09-26 05:10:00,72.1,46.4,29.14,ESE,112,0.0,3.0,40,0.00,,,-99.99,Weather View 32 v60,2013-09-26 10:10:00,
2013-09-26 05:15:00,72.0,46.3,29.14,ESE,113,0.0,3.0,40,0.00,,,-99.99,Weather View 32 v60,2013-09-26 10:15:00,
2013-09-26 05:25:00,71.8,46.1,29.14,ESE,112,0.0,3.0,40,0.00,,,-99.99,Weather View 32 v60,2013-09-26 10:25:00,
2013-09-26 05:30:00,71.8,46.7,29.14,ESE,112,0.0,3.0,41,0.00,,,-99.99,Weather View 32 v60,2013-09-26 10:30:00,
2013-09-26 05:40:00,71.4,46.4,29.14,ESE,113,0.0,3.0,41,0.00,,,-99.99,Weather View 32 v60,2013-09-26 10:40:00,
2013-09-26 05:45:00,71.4,47.1,29.14,ESE,112,0.0,3.0,42,0.00,,,-99.99,Weather View 32 v60,2013-09-26 10:45:00,
2013-09-26 05:55:00,71.4,47.1,29.14,ESE,112,0.0,0.0,42,0.00,,,-99.99,Weather View 32 v60,2013-09-26 10:55:00,
2013-09-26 06:00:00,71.2,46.9,29.14,ESE,112,0.0,0.0,42,0.00,,,-99.99,Weather View 32 v60,2013-09-26 11:00:00,
2013-09-26 06:10:00,71.1,47.4,29.14,ESE,113,0.0,0.0,43,0.00,,,-99.99,Weather View 32 v60,2013-09-26 11:10:00,
2013-09-26 06:15:00,71.1,48.0,29.14,ESE,113,0.0,0.0,44,0.00,,,-99.99,Weather View 32 v60,2013-09-26 11:15:00,
2013-09-26 06:25:00,70.9,47.8,29.14,ESE,114,0.0,3.0,44,0.00,,,-99.99,Weather View 32 v60,2013-09-26 11:25:00,
2013-09-26 06:30:00,70.9,47.8,29.14,ESE,112,0.0,3.0,44,0.00,,,-99.99,Weather View 32 v60,2013-09-26 11:30:00,
2013-09-26 06:40:00,70.5,48.1,29.14,ESE,102,0.0,4.0,45,0.00,,,-99.99,Weather View 32 v60,2013-09-26 11:40:00,
2013-09-26 06:45:00,70.5,48.1,29.14,ESE,103,0.0,4.0,45,0.00,,,-99.99,Weather View 32 v60,2013-09-26 11:45:00,
2013-09-26 06:55:00,70.3,48.5,29.17,ESE,104,3.0,4.0,46,0.00,,,-99.99,Weather View 32 v60,2013-09-26 11:55:00,
2013-09-26 07:05:00,70.2,48.9,29.17,East,94,0.0,4.0,47,0.00,,,-99.99,Weather View 32 v60,2013-09-26 12:05:00,
2013-09-26 07:10:00,70.2,49.5,29.17,East,95,0.0,4.0,48,0.00,,,-99.99,Weather View 32 v60,2013-09-26 12:10:00,
2013-09-26 07:20:00,69.8,49.2,29.17,East,96,0.0,4.0,48,0.00,,,-99.99,Weather View 32 v60,2013-09-26 12:20:00,
2013-09-26 07:25:00,69.8,49.2,29.17,East,95,3.0,4.0,48,0.00,,,-99.99,Weather View 32 v60,2013-09-26 12:25:00,
2013-09-26 07:30:00,69.8,49.2,29.17,East,93,0.0,4.0,48,0.00,,,-99.99,Weather View 32 v60,2013-09-26 12:30:00,
2013-09-26 07:40:00,69.8,49.7,29.17,East,96,3.0,4.0,49,0.00,,,-99.99,Weather View 32 v60,2013-09-26 12:40:00,
2013-09-26 07:45:00,69.8,49.7,29.17,East,95,0.0,4.0,49,0.00,,,-99.99,Weather View 32 v60,2013-09-26 12:45:00,
2013-09-26 07:50:00,69.8,49.7,29.17,East,93,0.0,4.0,49,0.00,,,-99.99,Weather View 32 v60,2013-09-26 12:50:00,
2013-09-26 08:00:00,69.8,49.7,29.17,East,94,0.0,4.0,49,0.00,,,-99.99,Weather View 32 v60,2013-09-26 13:00:00,
2013-09-26 08:05:00,69.8,49.7,29.17,East,101,0.0,4.0,49,0.00,,,-99.99,Weather View 32 v60,2013-09-26 13:05:00,
2013-09-26 08:15:00,70.0,50.4,29.20,ESE,104,0.0,4.0,50,0.00,,,-99.99,Weather View 32 v60,2013-09-26 13:15:00,
2013-09-26 08:20:00,70.2,50.6,29.20,ENE,70,0.0,4.0,50,0.00,,,-99.99,Weather View 32 v60,2013-09-26 13:20:00,
2013-09-26 08:30:00,70.3,51.3,29.20,NE,40,3.0,5.0,51,0.00,,,-99.99,Weather View 32 v60,2013-09-26 13:30:00,
2013-09-26 08:40:00,70.7,51.6,29.20,NE,43,0.0,5.0,51,0.00,,,-99.99,Weather View 32 v60,2013-09-26 13:40:00,
2013-09-26 08:45:00,70.9,51.3,29.20,ESE,123,0.0,5.0,50,0.00,,,-99.99,Weather View 32 v60,2013-09-26 13:45:00,
2013-09-26 08:50:00,71.2,51.6,29.20,ESE,102,0.0,6.0,50,0.00,,,-99.99,Weather View 32 v60,2013-09-26 13:50:00,
2013-09-26 09:00:00,72.0,51.7,29.20,East,98,0.0,6.0,49,0.00,,,-99.99,Weather View 32 v60,2013-09-26 14:00:00,
2013-09-26 09:05:00,72.3,52.0,29.20,East,89,0.0,6.0,49,0.00,,,-99.99,Weather View 32 v60,2013-09-26 14:05:00,
2013-09-26 09:15:00,73.0,52.1,29.20,East,92,0.0,6.0,48,0.00,,,-99.99,Weather View 32 v60,2013-09-26 14:15:00,
2013-09-26 09:20:00,73.6,52.0,29.20,East,101,3.0,6.0,47,0.00,,,-99.99,Weather View 32 v60,2013-09-26 14:20:00,
2013-09-26 09:30:00,74.5,52.3,29.20,East,100,0.0,6.0,46,0.00,,,-99.99,Weather View 32 v60,2013-09-26 14:30:00,
2013-09-26 09:35:00,75.0,52.2,29.20,SE,133,0.0,6.0,45,0.00,,,-99.99,Weather View 32 v60,2013-09-26 14:35:00,
2013-09-26 09:45:00,75.7,52.2,29.20,ESE,109,3.0,6.0,44,0.00,,,-99.99,Weather View 32 v60,2013-09-26 14:45:00,
2013-09-26 09:50:00,76.1,51.9,29.20,ESE,110,0.0,6.0,43,0.00,,,-99.99,Weather View 32 v60,2013-09-26 14:50:00,
2013-09-26 10:00:00,77.0,52.7,29.20,SW,215,0.0,6.0,43,0.00,,,-99.99,Weather View 32 v60,2013-09-26 15:00:00,
2013-09-26 10:11:00,78.1,53.7,29.20,East,99,0.0,6.0,43,0.00,,,-99.99,Weather View 32 v60,2013-09-26 15:11:00,
2013-09-26 10:16:00,78.4,53.4,29.20,SE,128,0.0,6.0,42,0.00,,,-99.99,Weather View 32 v60,2013-09-26 15:16:00,
2013-09-26 10:25:00,79.5,54.3,29.23,SE,138,0.0,5.0,42,0.00,,,-99.99,Weather View 32 v60,2013-09-26 15:25:00,
2013-09-26 10:30:00,79.9,54.7,29.23,SW,215,3.0,5.0,42,0.00,,,-99.99,Weather View 32 v60,2013-09-26 15:30:00,
2013-09-26 10:40:00,81.0,54.3,29.23,SW,224,7.0,7.0,40,0.00,,,-99.99,Weather View 32 v60,2013-09-26 15:40:00,
2013-09-26 10:45:00,81.3,53.2,29.23,South,189,0.0,7.0,38,0.00,,,-99.99,Weather View 32 v60,2013-09-26 15:45:00,
2013-09-26 10:55:00,82.2,53.3,29.23,SW,216,0.0,7.0,37,0.00,,,-99.99,Weather View 32 v60,2013-09-26 15:55:00,
2013-09-26 11:05:00,83.1,53.3,29.23,SE,131,0.0,7.0,36,0.00,,,-99.99,Weather View 32 v60,2013-09-26 16:05:00,
2013-09-26 11:10:00,83.8,53.2,29.23,SW,230,0.0,7.0,35,0.00,,,-99.99,Weather View 32 v60,2013-09-26 16:10:00,
2013-09-26 11:15:00,83.8,53.2,29.23,SSW,207,0.0,7.0,35,0.00,,,-99.99,Weather View 32 v60,2013-09-26 16:15:00,
2013-09-26 11:25:00,84.9,54.1,29.23,SW,219,4.0,7.0,35,0.00,,,-99.99,Weather View 32 v60,2013-09-26 16:25:00,
2013-09-26 11:30:00,85.1,53.5,29.23,West,271,0.0,7.0,34,0.00,,,-99.99,Weather View 32 v60,2013-09-26 16:30:00,
2013-09-26 11:40:00,85.6,52.3,29.23,ESE,112,0.0,7.0,32,0.00,,,-99.99,Weather View 32 v60,2013-09-26 16:40:00,
2013-09-26 11:45:00,85.6,52.3,29.23,SSE,167,0.0,6.0,32,0.00,,,-99.99,Weather View 32 v60,2013-09-26 16:45:00,
2013-09-26 11:55:00,86.4,52.1,29.23,WSW,240,3.0,6.0,31,0.00,,,-99.99,Weather View 32 v60,2013-09-26 16:55:00,
2013-09-26 12:00:00,86.9,51.6,29.23,SW,221,3.0,6.0,30,0.00,,,-99.99,Weather View 32 v60,2013-09-26 17:00:00,
2013-09-26 12:10:00,87.4,51.2,29.20,WSW,249,3.0,7.0,29,0.00,,,-99.99,Weather View 32 v60,2013-09-26 17:10:00,
2013-09-26 12:15:00,87.6,51.3,29.20,SW,227,4.0,7.0,29,0.00,,,-99.99,Weather View 32 v60,2013-09-26 17:15:00,
2013-09-26 12:25:00,88.0,50.7,29.20,SW,221,5.0,9.0,28,0.00,,,-99.99,Weather View 32 v60,2013-09-26 17:25:00,
2013-09-26 12:33:00,88.3,51.0,29.20,SSW,210,4.0,10.0,28,0.00,,,-99.99,Weather View 32 v60,2013-09-26 17:33:00,
2013-09-26 12:40:00,89.2,50.8,29.20,South,178,4.0,10.0,27,0.00,,,-99.99,Weather View 32 v60,2013-09-26 17:40:00,
2013-09-26 12:50:00,89.2,50.8,29.20,WSW,243,4.0,10.0,27,0.00,,,-99.99,Weather View 32 v60,2013-09-26 17:50:00,
2013-09-26 12:55:00,89.4,49.9,29.20,SSW,196,4.0,10.0,26,0.00,,,-99.99,Weather View 32 v60,2013-09-26 17:55:00,
2013-09-26 13:05:00,89.4,48.8,29.20,SW,233,0.0,10.0,25,0.00,,,-99.99,Weather View 32 v60,2013-09-26 18:05:00,
2013-09-26 13:10:00,89.6,49.0,29.20,WSW,240,7.0,10.0,25,0.00,,,-99.99,Weather View 32 v60,2013-09-26 18:10:00,
2013-09-26 13:20:00,90.3,48.5,29.20,SSW,213,4.0,10.0,24,0.00,,,-99.99,Weather View 32 v60,2013-09-26 18:20:00,
2013-09-26 13:25:00,90.5,47.5,29.20,SW,216,4.0,10.0,23,0.00,,,-99.99,Weather View 32 v60,2013-09-26 18:25:00,
2013-09-26 13:34:00,90.5,48.7,29.20,WSW,241,3.0,11.0,24,0.00,,,-99.99,Weather View 32 v60,2013-09-26 18:34:00,
2013-09-26 13:45:00,90.9,47.8,29.20,East,97,0.0,12.0,23,0.00,,,-99.99,Weather View 32 v60,2013-09-26 18:45:00,
2013-09-26 13:50:00,90.7,46.5,29.20,SW,221,5.0,12.0,22,0.00,,,-99.99,Weather View 32 v60,2013-09-26 18:50:00,
2013-09-26 13:55:00,90.9,46.6,29.17,ESE,107,3.0,12.0,22,0.00,,,-99.99,Weather View 32 v60,2013-09-26 18:55:00,
2013-09-26 14:05:00,91.2,46.9,29.17,WSW,249,7.0,12.0,22,0.00,,,-99.99,Weather View 32 v60,2013-09-26 19:05:00,
2013-09-26 14:10:00,91.2,45.7,29.17,SSW,202,7.0,12.0,21,0.00,,,-99.99,Weather View 32 v60,2013-09-26 19:10:00,
2013-09-26 14:20:00,91.4,45.8,29.17,SW,228,3.0,12.0,21,0.00,,,-99.99,Weather View 32 v60,2013-09-26 19:20:00,
2013-09-26 14:25:00,91.4,44.6,29.17,ENE,57,3.0,12.0,20,0.00,,,-99.99,Weather View 32 v60,2013-09-26 19:25:00,
2013-09-26 14:35:00,91.8,44.9,29.17,South,183,0.0,12.0,20,0.00,,,-99.99,Weather View 32 v60,2013-09-26 19:35:00,
2013-09-26 14:40:00,91.9,43.6,29.17,SSE,168,4.0,9.0,19,0.00,,,-99.99,Weather View 32 v60,2013-09-26 19:40:00,
2013-09-26 14:50:00,91.6,43.4,29.17,East,92,0.0,9.0,19,0.00,,,-99.99,Weather View 32 v60,2013-09-26 19:50:00,
2013-09-26 14:55:00,91.6,41.9,29.17,SW,229,4.0,9.0,18,0.00,,,-99.99,Weather View 32 v60,2013-09-26 19:55:00,
2013-09-26 15:05:00,92.1,42.4,29.17,SW,222,3.0,10.0,18,0.00,,,-99.99,Weather View 32 v60,2013-09-26 20:05:00,
2013-09-26 15:10:00,91.8,42.1,29.17,SW,220,3.0,10.0,18,0.00,,,-99.99,Weather View 32 v60,2013-09-26 20:10:00,
2013-09-26 15:25:00,91.6,41.9,29.17,SSW,211,4.0,10.0,18,0.00,,,-99.99,Weather View 32 v60,2013-09-26 20:25:00,
2013-09-26 15:35:00,91.4,41.8,29.17,WSW,240,5.0,11.0,18,0.00,,,-99.99,Weather View 32 v60,2013-09-26 20:35:00,
2013-09-26 15:45:00,91.6,41.9,29.17,SW,214,7.0,11.0,18,0.00,,,-99.99,Weather View 32 v60,2013-09-26 20:45:00,
2013-09-26 15:50:00,91.8,43.5,29.17,ESE,103,0.0,11.0,19,0.00,,,-99.99,Weather View 32 v60,2013-09-26 20:50:00,
2013-09-26 15:55:00,91.8,42.1,29.14,SW,225,4.0,11.0,18,0.00,,,-99.99,Weather View 32 v60,2013-09-26 20:55:00,
2013-09-26 16:05:00,92.3,42.5,29.14,SW,234,3.0,11.0,18,0.00,,,-99.99,Weather View 32 v60,2013-09-26 21:05:00,
2013-09-26 16:10:00,91.9,42.2,29.14,ESE,102,0.0,11.0,18,0.00,,,-99.99,Weather View 32 v60,2013-09-26 21:10:00,
2013-09-26 16:20:00,91.6,41.9,29.14,SW,220,3.0,11.0,18,0.00,,,-99.99,Weather View 32 v60,2013-09-26 21:20:00,
2013-09-26 16:25:00,91.4,41.8,29.14,WSW,240,0.0,11.0,18,0.00,,,-99.99,Weather View 32 v60,2013-09-26 21:25:00,
2013-09-26 16:35:00,91.4,41.8,29.14,SW,231,0.0,10.0,18,0.00,,,-99.99,Weather View 32 v60,2013-09-26 21:35:00,
2013-09-26 16:45:00,91.2,41.7,29.14,SSW,210,0.0,9.0,18,0.00,,,-99.99,Weather View 32 v60,2013-09-26 21:45:00,
2013-09-26 16:50:00,91.2,41.7,29.14,WSW,242,4.0,9.0,18,0.00,,,-99.99,Weather View 32 v60,2013-09-26 21:50:00,
2013-09-26 17:00:00,90.9,41.4,29.14,East,101,4.0,9.0,18,0.00,,,-99.99,Weather View 32 v60,2013-09-26 22:00:00,
2013-09-26 17:10:00,90.5,42.5,29.14,WSW,257,3.0,9.0,19,0.00,,,-99.99,Weather View 32 v60,2013-09-26 22:10:00,
2013-09-26 17:15:00,90.1,42.2,29.14,ESE,113,4.0,11.0,19,0.00,,,-99.99,Weather View 32 v60,2013-09-26 22:15:00,
2013-09-26 17:20:00,89.8,41.9,29.14,West,264,3.0,11.0,19,0.00,,,-99.99,Weather View 32 v60,2013-09-26 22:20:00,
2013-09-26 17:30:00,89.8,41.9,29.14,SSW,197,5.0,11.0,19,0.00,,,-99.99,Weather View 32 v60,2013-09-26 22:30:00,
2013-09-26 17:35:00,89.4,41.6,29.14,SSW,208,0.0,11.0,19,0.00,,,-99.99,Weather View 32 v60,2013-09-26 22:35:00,
2013-09-26 17:45:00,89.2,41.5,29.14,ESE,110,3.0,11.0,19,0.00,,,-99.99,Weather View 32 v60,2013-09-26 22:45:00,
2013-09-26 17:55:00,89.1,41.3,29.14,SSE,166,0.0,11.0,19,0.00,,,-99.99,Weather View 32 v60,2013-09-26 22:55:00,
2013-09-26 18:01:00,88.9,41.2,29.14,WSW,242,3.0,11.0,19,0.00,,,-99.99,Weather View 32 v60,2013-09-26 23:01:00,
2013-09-26 18:10:00,88.7,42.3,29.14,SSW,213,0.0,11.0,20,0.00,,,-99.99,Weather View 32 v60,2013-09-26 23:10:00,
2013-09-26 18:15:00,88.5,42.2,29.14,SSW,211,0.0,7.0,20,0.00,,,-99.99,Weather View 32 v60,2013-09-26 23:15:00,
2013-09-26 18:20:00,88.2,41.9,29.14,South,185,4.0,7.0,20,0.00,,,-99.99,Weather View 32 v60,2013-09-26 23:20:00,
2013-09-26 18:30:00,87.8,42.9,29.14,East,100,0.0,7.0,21,0.00,,,-99.99,Weather View 32 v60,2013-09-26 23:30:00,
2013-09-26 18:35:00,87.6,42.7,29.14,SE,138,0.0,7.0,21,0.00,,,-99.99,Weather View 32 v60,2013-09-26 23:35:00,
2013-09-26 18:45:00,87.3,42.4,29.14,SW,233,0.0,6.0,21,0.00,,,-99.99,Weather View 32 v60,2013-09-26 23:45:00,
2013-09-26 18:55:00,87.1,43.5,29.17,SW,234,0.0,6.0,22,0.00,,,-99.99,Weather View 32 v60,2013-09-26 23:55:00,
2013-09-26 19:00:00,86.7,44.4,29.17,SW,233,0.0,6.0,23,0.00,,,-99.99,Weather View 32 v60,2013-09-27 00:00:00,
2013-09-26 19:10:00,86.2,45.0,29.17,SW,233,0.0,6.0,24,0.00,,,-99.99,Weather View 32 v60,2013-09-27 00:10:00,
2013-09-26 19:20:00,85.6,45.7,29.17,SW,233,0.0,5.0,25,0.00,,,-99.99,Weather View 32 v60,2013-09-27 00:20:00,
2013-09-26 19:25:00,85.3,46.4,29.17,SW,233,0.0,4.0,26,0.00,,,-99.99,Weather View 32 v60,2013-09-27 00:25:00,
2013-09-26 19:35:00,84.6,46.8,29.17,SW,233,0.0,4.0,27,0.00,,,-99.99,Weather View 32 v60,2013-09-27 00:35:00,
2013-09-26 19:40:00,84.4,46.6,29.17,SW,233,0.0,3.0,27,0.00,,,-99.99,Weather View 32 v60,2013-09-27 00:40:00,
2013-09-26 19:50:00,84.0,47.3,29.17,SW,233,0.0,3.0,28,0.00,,,-99.99,Weather View 32 v60,2013-09-27 00:50:00,
2013-09-26 19:55:00,83.7,47.9,29.17,SW,233,0.0,3.0,29,0.00,,,-99.99,Weather View 32 v60,2013-09-27 00:55:00,
2013-09-26 20:05:00,82.9,48.2,29.17,SW,233,0.0,3.0,30,0.00,,,-99.99,Weather View 32 v60,2013-09-27 01:05:00,
2013-09-26 20:15:00,82.4,48.6,29.17,SW,233,0.0,0.0,31,0.00,,,-99.99,Weather View 32 v60,2013-09-27 01:15:00,
2013-09-26 20:20:00,82.0,48.3,29.17,SW,233,0.0,0.0,31,0.00,,,-99.99,Weather View 32 v60,2013-09-27 01:20:00,
2013-09-26 20:30:00,81.7,48.9,29.17,SW,233,0.0,0.0,32,0.00,,,-99.99,Weather View 32 v60,2013-09-27 01:30:00,
2013-09-26 20:35:00,81.5,48.7,29.17,SW,229,0.0,0.0,32,0.00,,,-99.99,Weather View 32 v60,2013-09-27 01:35:00,
2013-09-26 20:45:00,81.1,48.4,29.17,SW,229,0.0,0.0,32,0.00,,,-99.99,Weather View 32 v60,2013-09-27 01:45:00,
2013-09-26 20:55:00,80.8,48.1,29.17,SE,126,0.0,4.0,32,0.00,,,-99.99,Weather View 32 v60,2013-09-27 01:55:00,
2013-09-26 21:00:00,80.8,48.1,29.17,SE,126,0.0,4.0,32,0.00,,,-99.99,Weather View 32 v60,2013-09-27 02:00:00,
2013-09-26 21:10:00,80.6,47.9,29.17,ESE,117,0.0,4.0,32,0.00,,,-99.99,Weather View 32 v60,2013-09-27 02:10:00,
2013-09-26 21:15:00,80.6,47.9,29.17,ESE,117,0.0,4.0,32,0.00,,,-99.99,Weather View 32 v60,2013-09-27 02:15:00,
2013-09-26 21:25:00,80.6,48.7,29.17,ESE,118,0.0,4.0,33,0.00,,,-99.99,Weather View 32 v60,2013-09-27 02:25:00,
2013-09-26 21:35:00,80.4,48.6,29.17,ESE,114,0.0,5.0,33,0.00,,,-99.99,Weather View 32 v60,2013-09-27 02:35:00,
2013-09-26 21:40:00,80.4,48.6,29.17,SE,141,0.0,5.0,33,0.00,,,-99.99,Weather View 32 v60,2013-09-27 02:40:00,
2013-09-26 21:45:00,80.2,48.4,29.17,ESE,106,0.0,5.0,33,0.00,,,-99.99,Weather View 32 v60,2013-09-27 02:45:00,
2013-09-26 21:50:00,80.2,49.2,29.17,ESE,105,3.0,5.0,34,0.00,,,-99.99,Weather View 32 v60,2013-09-27 02:50:00,
2013-09-26 21:55:00,80.1,49.1,29.17,ESE,105,0.0,5.0,34,0.00,,,-99.99,Weather View 32 v60,2013-09-27 02:55:00,
2013-09-26 22:00:00,79.9,48.9,29.17,ESE,106,0.0,5.0,34,0.00,,,-99.99,Weather View 32 v60,2013-09-27 03:00:00,
2013-09-26 22:05:00,79.9,49.7,29.17,ESE,106,0.0,5.0,35,0.00,,,-99.99,Weather View 32 v60,2013-09-27 03:05:00,
2013-09-26 22:15:00,79.5,50.1,29.20,ESE,106,0.0,5.0,36,0.00,,,-99.99,Weather View 32 v60,2013-09-27 03:15:00,
2013-09-26 22:20:00,79.5,50.9,29.20,ESE,105,0.0,5.0,37,0.00,,,-99.99,Weather View 32 v60,2013-09-27 03:20:00,
2013-09-26 22:30:00,79.5,51.6,29.20,ESE,105,0.0,5.0,38,0.00,,,-99.99,Weather View 32 v60,2013-09-27 03:30:00,
2013-09-26 22:35:00,79.3,52.2,29.20,ESE,105,0.0,4.0,39,0.00,,,-99.99,Weather View 32 v60,2013-09-27 03:35:00,
2013-09-26 22:45:00,79.0,51.8,29.20,ESE,105,0.0,4.0,39,0.00,,,-99.99,Weather View 32 v60,2013-09-27 03:45:00,
2013-09-26 22:55:00,78.8,52.4,29.20,ESE,105,0.0,4.0,40,0.00,,,-99.99,Weather View 32 v60,2013-09-27 03:55:00,
2013-09-26 23:06:00,78.4,52.0,29.20,ESE,105,0.0,4.0,40,0.00,,,-99.99,Weather View 32 v60,2013-09-27 04:06:00,
2013-09-26 23:15:00,78.3,51.9,29.20,ESE,105,0.0,4.0,40,0.00,,,-99.99,Weather View 32 v60,2013-09-27 04:15:00,
2013-09-26 23:20:00,78.1,51.7,29.20,ESE,105,0.0,4.0,40,0.00,,,-99.99,Weather View 32 v60,2013-09-27 04:20:00,
2013-09-26 23:25:00,78.1,52.4,29.20,ESE,105,0.0,4.0,41,0.00,,,-99.99,Weather View 32 v60,2013-09-27 04:25:00,
2013-09-26 23:30:00,77.7,52.1,29.20,ESE,105,0.0,4.0,41,0.00,,,-99.99,Weather View 32 v60,2013-09-27 04:30:00,
2013-09-26 23:40:00,77.5,52.6,29.20,East,97,0.0,3.0,42,0.00,,,-99.99,Weather View 32 v60,2013-09-27 04:40:00,
2013-09-26 23:50:00,77.4,52.4,29.20,SSW,196,0.0,3.0,42,0.00,,,-99.99,Weather View 32 v60,2013-09-27 04:50:00,